Time,TemperatureF,DewpointF,PressureIn,WindDirection,WindDirectionDegrees,WindSpeedMPH,WindSpeedGustMPH,Humidity,HourlyPrecipIn,Conditions,Clouds,dailyrainin,SoftwareType,DateUTC
2013-07-05 00:12:00,81.0,76.0,30.21,SE,125,6.0,12.0,85,0.00,,,0.00,,2013-07-05 04:12:00,
2013-07-05 00:22:00,81.0,76.0,30.21,SE,125,6.0,12.0,85,0.00,,,0.00,,2013-07-05 04:22:00,
2013-07-05 00:33:00,81.0,76.0,30.21,SE,126,4.0,10.0,86,0.00,,,0.00,,2013-07-05 04:33:00,
2013-07-05 00:43:00,81.0,76.0,30.21,SE,126,4.0,10.0,86,0.00,,,0.00,,2013-07-05 04:43:00,
2013-07-05 00:53:00,80.0,75.0,30.20,SSE,168,5.0,10.0,86,0.00,,,0.00,,2013-07-05 04:53:00,
2013-07-05 01:01:00,80.0,75.0,30.20,SSE,168,5.0,10.0,86,0.00,,,0.00,,2013-07-05 05:01:00,
2013-07-05 01:12:00,80.0,76.0,30.20,SSE,147,4.0,9.0,87,0.00,,,0.00,,2013-07-05 05:12:00,
2013-07-05 01:22:00,80.0,76.0,30.20,SE,146,4.0,11.0,87,0.00,,,0.00,,2013-07-05 05:22:00,
2013-07-05 01:33:00,80.0,76.0,30.20,SE,130,4.0,9.0,87,0.00,,,0.00,,2013-07-05 05:33:00,
2013-07-05 01:43:00,80.0,76.0,30.20,SE,146,5.0,11.0,87,0.00,,,0.00,,2013-07-05 05:43:00,
2013-07-05 01:52:00,80.0,76.0,30.20,SE,146,5.0,11.0,87,0.00,,,0.00,,2013-07-05 05:52:00,
2013-07-05 02:02:00,80.0,76.0,30.19,SSE,148,5.0,10.0,87,0.00,,,0.00,,2013-07-05 06:02:00,
2013-07-05 02:13:00,80.0,76.0,30.19,SE,129,6.0,11.0,88,0.00,,,0.00,,2013-07-05 06:13:00,
2013-07-05 02:23:00,80.0,76.0,30.19,SE,129,6.0,11.0,88,0.00,,,0.00,,2013-07-05 06:23:00,
2013-07-05 02:34:00,80.0,76.0,30.19,SE,130,4.0,11.0,88,0.00,,,0.00,,2013-07-05 06:34:00,
2013-07-05 02:44:00,80.0,76.0,30.19,SSE,147,4.0,11.0,88,0.00,,,0.00,,2013-07-05 06:44:00,
2013-07-05 02:53:00,80.0,76.0,30.19,SSE,147,4.0,11.0,88,0.00,,,0.00,,2013-07-05 06:53:00,
2013-07-05 03:02:00,80.0,76.0,30.18,SE,140,6.0,11.0,88,0.00,,,0.00,,2013-07-05 07:02:00,
2013-07-05 03:12:00,80.0,76.0,30.18,SE,146,5.0,10.0,88,0.00,,,0.00,,2013-07-05 07:12:00,
2013-07-05 03:23:00,80.0,76.0,30.18,SE,146,5.0,10.0,88,0.00,,,0.00,,2013-07-05 07:23:00,
2013-07-05 03:34:00,80.0,76.0,30.17,SE,136,4.0,9.0,88,0.00,,,0.00,,2013-07-05 07:34:00,
2013-07-05 03:43:00,80.0,76.0,30.18,SE,137,6.0,9.0,89,0.00,,,0.00,,2013-07-05 07:43:00,
2013-07-05 03:53:00,80.0,76.0,30.18,SE,137,6.0,9.0,89,0.00,,,0.00,,2013-07-05 07:53:00,
2013-07-05 04:03:00,80.0,76.0,30.18,SE,128,4.0,11.0,89,0.00,,,0.00,,2013-07-05 08:03:00,
2013-07-05 04:12:00,80.0,76.0,30.18,SE,128,4.0,11.0,89,0.00,,,0.00,,2013-07-05 08:12:00,
2013-07-05 04:23:00,80.0,76.0,30.18,SE,128,4.0,11.0,89,0.00,,,0.00,,2013-07-05 08:23:00,
2013-07-05 04:33:00,80.0,76.0,30.17,SE,137,4.0,13.0,89,0.00,,,0.00,,2013-07-05 08:33:00,
2013-07-05 04:44:00,80.0,76.0,30.18,SE,146,4.0,9.0,89,0.00,,,0.00,,2013-07-05 08:44:00,
2013-07-05 05:08:00,80.0,77.0,30.17,SE,127,3.0,9.0,90,0.00,,,0.00,,2013-07-05 09:08:00,
2013-07-05 05:27:00,80.0,77.0,30.18,SE,128,4.0,9.0,90,0.00,,,0.00,,2013-07-05 09:27:00,
2013-07-05 05:37:00,80.0,77.0,30.18,SSE,148,5.0,9.0,90,0.00,,,0.00,,2013-07-05 09:37:00,
2013-07-05 05:48:00,80.0,77.0,30.18,SE,128,4.0,8.0,90,0.00,,,0.00,,2013-07-05 09:48:00,
2013-07-05 05:55:00,80.0,77.0,30.18,SE,128,4.0,8.0,90,0.00,,,0.00,,2013-07-05 09:55:00,
2013-07-05 06:08:00,80.0,77.0,30.19,SSE,154,4.0,10.0,90,0.00,,,0.00,,2013-07-05 10:08:00,
2013-07-05 06:19:00,80.0,77.0,30.19,SE,134,5.0,10.0,90,0.00,,,0.00,,2013-07-05 10:19:00,
2013-07-05 06:27:00,80.0,77.0,30.19,SE,134,5.0,10.0,90,0.00,,,0.00,,2013-07-05 10:27:00,
2013-07-05 06:38:00,80.0,77.0,30.19,ESE,118,5.0,9.0,91,0.00,,,0.00,,2013-07-05 10:38:00,
2013-07-05 06:47:00,80.0,77.0,30.19,SSE,161,4.0,8.0,91,0.00,,,0.00,,2013-07-05 10:47:00,
2013-07-05 06:56:00,80.0,77.0,30.19,SSE,161,4.0,8.0,91,0.00,,,0.00,,2013-07-05 10:56:00,
2013-07-05 07:10:00,80.0,77.0,30.19,SE,133,4.0,9.0,91,0.00,,,0.00,,2013-07-05 11:10:00,
2013-07-05 07:18:00,80.0,77.0,30.19,SE,133,5.0,11.0,91,0.00,,,0.00,,2013-07-05 11:18:00,
2013-07-05 07:25:00,80.0,77.0,30.19,SE,133,5.0,11.0,91,0.00,,,0.00,,2013-07-05 11:25:00,
2013-07-05 07:37:00,80.0,77.0,30.20,ESE,116,5.0,10.0,90,0.00,,,0.00,,2013-07-05 11:37:00,
2013-07-05 07:48:00,80.0,77.0,30.20,SE,142,3.0,8.0,90,0.00,,,0.00,,2013-07-05 11:48:00,
2013-07-05 07:58:00,80.0,77.0,30.20,SE,142,3.0,8.0,90,0.00,,,0.00,,2013-07-05 11:58:00,
2013-07-05 08:10:00,81.0,77.0,30.20,SE,138,4.0,10.0,89,0.00,,,0.00,,2013-07-05 12:10:00,
2013-07-05 08:16:00,81.0,77.0,30.21,SSE,157,4.0,9.0,89,0.00,,,0.00,,2013-07-05 12:16:00,
2013-07-05 08:26:00,81.0,77.0,30.21,SSE,157,4.0,9.0,89,0.00,,,0.00,,2013-07-05 12:26:00,
2013-07-05 08:37:00,82.0,78.0,30.21,SSE,155,3.0,9.0,88,0.00,,,0.00,,2013-07-05 12:37:00,
2013-07-05 08:49:00,82.0,78.0,30.21,SE,133,3.0,8.0,87,0.00,,,0.00,,2013-07-05 12:49:00,
2013-07-05 08:57:00,82.0,78.0,30.21,SE,133,3.0,8.0,87,0.00,,,0.00,,2013-07-05 12:57:00,
2013-07-05 09:07:00,82.0,78.0,30.21,SE,135,3.0,8.0,87,0.00,,,0.00,,2013-07-05 13:07:00,
2013-07-05 09:13:00,82.0,78.0,30.21,SE,135,3.0,8.0,87,0.00,,,0.00,,2013-07-05 13:13:00,
2013-07-05 09:25:00,82.0,78.0,30.21,SE,135,3.0,8.0,87,0.00,,,0.00,,2013-07-05 13:25:00,
2013-07-05 09:39:00,83.0,79.0,30.22,SE,142,2.0,6.0,87,0.00,,,0.00,,2013-07-05 13:39:00,
2013-07-05 09:48:00,83.0,78.0,30.22,SE,142,3.0,9.0,85,0.00,,,0.00,,2013-07-05 13:48:00,
2013-07-05 09:58:00,83.0,78.0,30.22,SE,142,3.0,9.0,85,0.00,,,0.00,,2013-07-05 13:58:00,
2013-07-05 10:08:00,83.0,78.0,30.22,SE,128,3.0,7.0,84,0.00,,,0.00,,2013-07-05 14:08:00,
2013-07-05 10:38:00,84.0,79.0,30.22,ESE,120,3.0,9.0,84,0.00,,,0.00,,2013-07-05 14:38:00,
2013-07-05 10:46:00,84.0,79.0,30.22,ESE,104,4.0,9.0,84,0.00,,,0.00,,2013-07-05 14:46:00,
2013-07-05 10:55:00,84.0,79.0,30.22,ESE,104,4.0,9.0,84,0.00,,,0.00,,2013-07-05 14:55:00,
2013-07-05 11:08:00,84.0,78.0,30.22,ESE,112,3.0,7.0,83,0.00,,,0.00,,2013-07-05 15:08:00,
2013-07-05 11:25:00,84.0,78.0,30.23,East,98,5.0,9.0,82,0.00,,,0.00,,2013-07-05 15:25:00,
2013-07-05 11:34:00,85.0,79.0,30.23,ESE,122,4.0,9.0,82,0.00,,,0.00,,2013-07-05 15:34:00,
2013-07-05 11:43:00,85.0,79.0,30.23,SE,144,4.0,8.0,82,0.00,,,0.00,,2013-07-05 15:43:00,
2013-07-05 11:53:00,85.0,79.0,30.23,SE,144,4.0,8.0,82,0.00,,,0.00,,2013-07-05 15:53:00,
2013-07-05 12:02:00,85.0,79.0,30.23,SSE,148,4.0,10.0,82,0.00,,,0.00,,2013-07-05 16:02:00,
2013-07-05 12:11:00,85.0,79.0,30.23,SSE,148,4.0,10.0,82,0.00,,,0.00,,2013-07-05 16:11:00,
2013-07-05 12:33:00,84.0,78.0,30.22,East,80,5.0,9.0,83,0.00,,,0.00,,2013-07-05 16:33:00,
2013-07-05 12:44:00,82.0,77.0,30.22,SE,126,5.0,9.0,86,0.00,,,0.00,,2013-07-05 16:44:00,
2013-07-05 12:53:00,82.0,77.0,30.22,SE,126,5.0,9.0,86,0.00,,,0.00,,2013-07-05 16:53:00,
2013-07-05 13:02:00,82.0,78.0,30.22,ESE,116,5.0,9.0,87,0.00,,,0.00,,2013-07-05 17:02:00,
2013-07-05 13:12:00,82.0,78.0,30.22,ESE,116,5.0,9.0,87,0.00,,,0.00,,2013-07-05 17:12:00,
2013-07-05 13:22:00,82.0,78.0,30.22,SSE,157,3.0,9.0,87,0.00,,,0.00,,2013-07-05 17:22:00,
2013-07-05 13:43:00,83.0,78.0,30.22,SSE,156,4.0,10.0,85,0.00,,,0.00,,2013-07-05 17:43:00,
2013-07-05 13:53:00,83.0,78.0,30.22,SSE,156,4.0,10.0,85,0.00,,,0.00,,2013-07-05 17:53:00,
2013-07-05 14:02:00,84.0,78.0,30.22,SE,136,5.0,12.0,82,0.00,,,0.00,,2013-07-05 18:02:00,
2013-07-05 14:22:00,84.0,78.0,30.22,SE,140,5.0,13.0,81,0.00,,,0.00,,2013-07-05 18:22:00,
2013-07-05 14:33:00,84.0,77.0,30.22,SSE,152,8.0,12.0,80,0.00,,,0.00,,2013-07-05 18:33:00,
2013-07-05 14:53:00,84.0,78.0,30.21,SE,134,6.0,12.0,81,0.00,,,0.00,,2013-07-05 18:53:00,
2013-07-05 15:02:00,84.0,78.0,30.21,SE,140,5.0,11.0,82,0.00,,,0.00,,2013-07-05 19:02:00,
2013-07-05 15:22:00,84.0,78.0,30.20,ESE,108,5.0,11.0,83,0.00,,,0.00,,2013-07-05 19:22:00,
2013-07-05 15:34:00,84.0,78.0,30.20,ESE,114,4.0,10.0,83,0.00,,,0.00,,2013-07-05 19:34:00,
2013-07-05 15:43:00,84.0,78.0,30.19,SE,140,5.0,9.0,82,0.00,,,0.00,,2013-07-05 19:43:00,
2013-07-05 15:53:00,84.0,78.0,30.19,SE,140,5.0,9.0,82,0.00,,,0.00,,2013-07-05 19:53:00,
2013-07-05 16:02:00,84.0,78.0,30.19,ESE,113,6.0,11.0,81,0.00,,,0.00,,2013-07-05 20:02:00,
2013-07-05 16:11:00,84.0,78.0,30.19,ESE,113,6.0,11.0,81,0.00,,,0.00,,2013-07-05 20:11:00,
2013-07-05 16:22:00,84.0,77.0,30.18,SE,145,5.0,11.0,80,0.00,,,0.00,,2013-07-05 20:22:00,
2013-07-05 16:33:00,84.0,78.0,30.17,ESE,122,5.0,12.0,82,0.00,,,0.00,,2013-07-05 20:33:00,
2013-07-05 16:53:00,84.0,78.0,30.16,SE,128,6.0,11.0,81,0.00,,,0.00,,2013-07-05 20:53:00,
2013-07-05 17:02:00,84.0,78.0,30.16,SE,126,5.0,13.0,82,0.00,,,0.00,,2013-07-05 21:02:00,
2013-07-05 17:12:00,83.0,78.0,30.16,SE,138,3.0,11.0,84,0.00,,,0.00,,2013-07-05 21:12:00,
2013-07-05 17:22:00,83.0,78.0,30.16,SE,138,3.0,11.0,84,0.00,,,0.00,,2013-07-05 21:22:00,
2013-07-05 17:34:00,83.0,77.0,30.16,SE,136,6.0,10.0,83,0.00,,,0.00,,2013-07-05 21:34:00,
2013-07-05 17:53:00,83.0,77.0,30.16,SSE,153,5.0,11.0,83,0.00,,,0.00,,2013-07-05 21:53:00,
2013-07-05 18:02:00,83.0,77.0,30.16,SE,141,5.0,13.0,83,0.00,,,0.00,,2013-07-05 22:02:00,
2013-07-05 18:12:00,83.0,77.0,30.16,SE,132,6.0,12.0,83,0.00,,,0.00,,2013-07-05 22:12:00,
2013-07-05 18:34:00,83.0,77.0,30.16,SE,145,6.0,12.0,83,0.00,,,0.00,,2013-07-05 22:34:00,
2013-07-05 18:43:00,83.0,77.0,30.16,SE,142,7.0,12.0,83,0.00,,,0.00,,2013-07-05 22:43:00,
2013-07-05 18:53:00,83.0,77.0,30.16,SE,142,7.0,12.0,83,0.00,,,0.00,,2013-07-05 22:53:00,
2013-07-05 19:02:00,82.0,76.0,30.16,SE,142,7.0,15.0,83,0.00,,,0.00,,2013-07-05 23:02:00,
2013-07-05 19:11:00,82.0,76.0,30.16,SE,134,6.0,13.0,83,0.00,,,0.00,,2013-07-05 23:11:00,
2013-07-05 19:23:00,82.0,76.0,30.16,SE,134,6.0,13.0,83,0.00,,,0.00,,2013-07-05 23:23:00,
2013-07-05 19:32:00,82.0,76.0,30.16,SE,140,7.0,15.0,82,0.00,,,0.00,,2013-07-05 23:32:00,
2013-07-05 19:43:00,82.0,76.0,30.16,SE,137,7.0,15.0,83,0.00,,,0.00,,2013-07-05 23:43:00,
2013-07-05 19:53:00,82.0,76.0,30.16,SE,137,7.0,15.0,83,0.00,,,0.00,,2013-07-05 23:53:00,
2013-07-05 20:02:00,81.0,75.0,30.16,SSE,151,9.0,13.0,83,0.00,,,0.00,,2013-07-06 00:02:00,
2013-07-05 20:12:00,81.0,75.0,30.16,SSE,151,9.0,13.0,83,0.00,,,0.00,,2013-07-06 00:12:00,
2013-07-05 20:22:00,81.0,75.0,30.17,SE,135,6.0,14.0,83,0.00,,,0.00,,2013-07-06 00:22:00,
2013-07-05 20:33:00,81.0,75.0,30.17,ESE,119,7.0,12.0,83,0.00,,,0.00,,2013-07-06 00:33:00,
2013-07-05 20:42:00,81.0,75.0,30.17,ESE,119,7.0,12.0,83,0.00,,,0.00,,2013-07-06 00:42:00,
2013-07-05 20:53:00,81.0,76.0,30.17,SE,134,6.0,11.0,84,0.00,,,0.00,,2013-07-06 00:53:00,
2013-07-05 21:02:00,81.0,75.0,30.17,SE,130,5.0,10.0,83,0.00,,,0.00,,2013-07-06 01:02:00,
2013-07-05 21:12:00,81.0,75.0,30.17,SE,130,5.0,10.0,83,0.00,,,0.00,,2013-07-06 01:12:00,
2013-07-05 21:22:00,81.0,76.0,30.18,SE,136,6.0,11.0,84,0.00,,,0.00,,2013-07-06 01:22:00,
2013-07-05 21:43:00,81.0,76.0,30.19,SE,137,5.0,10.0,84,0.00,,,0.00,,2013-07-06 01:43:00,
2013-07-05 21:53:00,81.0,76.0,30.19,SE,137,5.0,10.0,84,0.00,,,0.00,,2013-07-06 01:53:00,
2013-07-05 22:02:00,81.0,75.0,30.19,SE,138,5.0,10.0,83,0.00,,,0.00,,2013-07-06 02:02:00,
2013-07-05 22:12:00,81.0,75.0,30.19,SE,138,5.0,10.0,83,0.00,,,0.00,,2013-07-06 02:12:00,
2013-07-05 22:34:00,81.0,76.0,30.20,SE,146,5.0,13.0,84,0.00,,,0.00,,2013-07-06 02:34:00,
2013-07-05 22:43:00,81.0,76.0,30.20,SE,146,5.0,13.0,84,0.00,,,0.00,,2013-07-06 02:43:00,
2013-07-05 22:53:00,81.0,76.0,30.20,SE,139,5.0,10.0,84,0.00,,,0.00,,2013-07-06 02:53:00,
2013-07-05 23:02:00,81.0,76.0,30.20,SE,139,5.0,10.0,84,0.00,,,0.00,,2013-07-06 03:02:00,
2013-07-05 23:12:00,81.0,76.0,30.20,South,169,5.0,10.0,84,0.00,,,0.00,,2013-07-06 03:12:00,
2013-07-05 23:22:00,81.0,76.0,30.21,SE,144,6.0,10.0,84,0.00,,,0.00,,2013-07-06 03:22:00,
2013-07-05 23:34:00,81.0,76.0,30.20,SSE,148,5.0,11.0,85,0.00,,,0.00,,2013-07-06 03:34:00,
2013-07-05 23:43:00,81.0,76.0,30.20,SSE,148,5.0,11.0,85,0.00,,,0.00,,2013-07-06 03:43:00,
2013-07-05 23:53:00,81.0,76.0,30.20,ESE,118,3.0,9.0,85,0.00,,,0.00,,2013-07-06 03:53:00,